Location: Unspecified
(51.6250°N, 0.8230°E)
Time: 10:30:46
(UTC+01:00)

Okean 3 - Pass Details

Date: 06 August 2020
Orbit: 576 x 601 km, 82.5° (Epoch: 23 September)

Event Time Altitude Azimuth Distance (km) Brightness Sun altitude
Rises 00:57:11 0° 338° (NNW) 2,844 8.2 -21.7°
Reaches altitude 10° 00:59:46 10° 323° (NW) 1,941 6.8 -21.7°
Maximum altitude 01:03:03 22° 273° (W) 1,330 5.3 -21.8°
Enters shadow 01:03:48 21° 258° (WSW) 1,368 5.2 -21.8°
